Regional Weather Roundup
Issued by NWS

Home | Current Version | Previous Version | Graphics & Text | Print | Product List | Glossary Off
Versions: 1 2 3 4 5 6 7 8 9 10 11 12 13 14 15 16 17 18 19 20 21 22 23 24 25 26 27 28 29 30 31 32 33 34 35 36 37 38 39 40 41 42 43 44 45 46 47 48 49 50

000
ASUS43 KMKX 300411
RWRWI

WISCONSIN REGIONAL WEATHER ROUNDUP
NATIONAL WEATHER SERVICE MILWAUKEE/SULLIVAN WI
1100 PM CDT THU SEP 29 2016

NOTE: "FAIR" INDICATES FEW OR NO CLOUDS BELOW 12,000 FEET WITH NO
SIGNIFICANT WEATHER AND/OR OBSTRUCTIONS TO VISIBILITY.

WIZ001-002-006>008-014>016-023>028-300500-
NORTHWEST WISCONSIN

CITY           SKY/WX    TMP DP  RH WIND       PRES   REMARKS
SUPERIOR ARPT  CLOUDY    53  52  97 NE8       30.47S
ASHLAND        CLOUDY    53  52  96 E14       30.47S
HAYWARD        CLOUDY    53  51  93 NE6       30.45S
SIREN          CLEAR     51  49  93 E3        30.43S
CUMBERLAND     CLEAR     50  50 100 E5        30.42S
RICE LAKE      CLEAR     51  49  92 CALM      30.44S
CHETEK         NOT AVBL
LADYSMITH      CLEAR     54  52  94 NE5       30.44S
EAU CLAIRE     CLEAR     56  53  90 NE7       30.39S
MENOMONIE      CLEAR     57  53  87 N6        30.40S
NEW RICHMOND   CLEAR     53  52  96 NE3       30.41S
OSCEOLA        CLEAR     55  55 100 E3        30.43S
$$

WIZ003>005-009-010-017-018-300500-
NORTH CENTRAL WISCONSIN

CITY           SKY/WX    TMP DP  RH WIND       PRES   REMARKS
MANITOWISH WTR NOT AVBL
ARBOR VITAE    CLEAR     52  50  95 NE3       30.44F
WOODRUFF       CLEAR     52  50  95 NE3       30.44F
RHINELANDER    CLEAR     51  51 100 NE3       30.44S
EAGLE RIVER    PTCLDY    48  48 100 CALM      30.44S
LAND O LAKES   CLOUDY    50  50 100 NE6       30.47S FOG
PHILLIPS       PTCLDY    50  50 100 CALM      30.44S
TOMAHAWK       CLEAR     52  50  94 NE5       30.43S
MEDFORD        CLEAR     53  53 100 NE7       30.41S
MERRILL        CLEAR     53  51  93 E6        30.42S
$$

WIZ029-030-035-036-043>047-300500-
CENTRAL WISCONSIN

CITY           SKY/WX    TMP DP  RH WIND       PRES   REMARKS
WAUSAU         CLEAR     56  49  77 NE7       30.39S
MOSINEE        CLEAR     54  50  87 NE9       30.40S
MARSHFIELD     CLEAR     58  52  80 NE9       30.38S
STEVENS POINT  CLEAR     55  49  80 NE9       30.38S
WAUPACA        CLEAR     59  53  83 N6        30.36F
WAUTOMA        CLEAR     57  50  77 N7        30.35S
WISC RAPIDS    CLEAR     59  51  75 NE8       30.38S
CAMP DOUGLAS   CLEAR     46  45  97 VRB2      30.35S
$$

WIZ011>013-019>022-031-037>040-048>050-300500-
NORTHEAST WISCONSIN

CITY           SKY/WX    TMP DP  RH WIND       PRES   REMARKS
ANTIGO         CLEAR     49  47  92 CALM      30.42S
SHAWANO        CLEAR     58  52  80 N10       30.38F
OCONTO         NOT AVBL
STURGEON BAY   CLEAR     61  55  81 N7        30.37S
GREEN BAY      CLEAR     60  58  92 NE13      30.35S
MANITOWOC      CLOUDY    63  53  70 MISG      30.33S
APPLETON       MOCLDY    57  54  88 NE9       30.33F
CLINTONVILLE   CLEAR     57  50  77 NE9       30.37S
OSHKOSH        PTCLDY    60  54  80 NE14      30.32F
$$

WIZ032>034-041-042-053>061-300500-
SOUTHWEST WISCONSIN

CITY           SKY/WX    TMP DP  RH WIND       PRES   REMARKS
LA CROSSE      CLEAR     56  53  90 E5        30.35S
SPARTA         CLEAR     47  47 100 CALM      30.37S
VIROQUA        CLEAR     55  49  82 NE5       30.35S
BOSCOBEL       CLEAR     50  48  93 CALM      30.33S FOG
PRAIRIE DU CHI CLEAR     54  50  87 N3        30.33S
PLATTEVILLE    CLEAR     56  47  73 N7        30.30S
$$

WIZ056-057-062-063-064-067-068-300500-
SOUTH CENTRAL WISCONSIN

CITY           SKY/WX    TMP DP  RH WIND       PRES   REMARKS
REEDSBURG      NOT AVBL
BARABOO/DELLS  CLEAR     56  47  70 NE7       30.32F
LONE ROCK      CLEAR     59  47  64 NE7       30.32S
MINERAL POINT  CLEAR     55  46  71 N7        30.30S
MADISON        CLEAR     57  51  80 N9        30.29F
MIDDLETON      CLEAR     56  51  82 N7        30.30S
WATERTOWN      PTCLDY    57  57 100 N7        30.28S
MONROE         CLEAR     55  52  88 N10       30.27F
JANESVILLE     MOCLDY    61  54  77 N6        30.26S
$$

WIZ051-052-058>065-066-070>072-300500-
SOUTHEAST WISCONSIN

CITY           SKY/WX    TMP DP  RH WIND       PRES   REMARKS
MILWAUKEE      CLOUDY    63  57  81 NE9       30.27S
WAUKESHA       CLOUDY    59  52  77 NE8       30.28F
MILWAUKEE/TIMM MOCLDY    61  50  67 NE9G16    30.28S
RACINE         CLOUDY    62  56  80 NE12      30.27S
BURLINGTON     CLOUDY    60  56  85 NE5       30.25F
KENOSHA        CLOUDY    62  57  83 NE12      30.25F
FOND DU LAC    PTCLDY    60  55  83 NE12      30.32S
SHEBOYGAN      MOCLDY    61  53  75 NE15      30.31F
WEST BEND      MOCLDY    66  61  82 NE10G17   30.29F
JUNEAU         CLEAR     56  54  91 N8        30.31S
$$

LSZ147-162-300500-
LAKE SUPERIOR

STATION/POSITION TIME  TEMP    WIND        PRES    WAVE
                       AIR SEA DIR/SP/G            HT/PER
                 (UTC) (F)     (DEG/KT/KT) (MB)    (FT/S)
W MID LAKE BUOY  0350   55 55   60/  6/  6 1032.2S   2/ 5
DEVILS ISLAND    0400   52      60/ 11/ 12 1032.6R
SAXON HARBOR     0340   52     190/  2/  2 1031.2F
$$

LMZ867-665-643>646-300500-
LAKE MICHIGAN

STATION/POSITION TIME  TEMP    WIND        PRES    WAVE
                       AIR SEA DIR/SP/G            HT/PER
                 (UTC) (F)     (DEG/KT/KT) (MB)    (FT/S)
CHAMBERS ISLAND  0300   61      10/ 17/ 20 1028.1S
S GREEN BAY BUOY 0400   61 63   30/ 17/ 19 1027.5S
N MID LAKE BUOY  0350   65 65   50/ 16/ 19 1027.6F   3/ 5
NORTHPORT PIER   0300   62      10/  8/ 10 1028.4F
SISTER BAY       0323   60      20/  8/ 10   N/A
KEWAUNEE LAKESHO 0300   62      50/ 11/ 15 1026.9S
SHEBOYGAN LAKESH 0400   61      40/ 14/ 15 1025.8F
PORT WASHINGTON  0300   60      60/  9/ 13 1026.4
ATWATER BUOY     0400   58 53   40/ 10/ 14 1024.5F
MILWAUKEE LAKESH 0310   59      30/  9/ 10   N/A
S MID LAKE BUOY  0350   63 68   50/ 21/ 25 1022.7F   6/ 5
KENOSHA   LAKESH 0400   62      60/ 17/ 22 1023.7F
$$

TC  - TEMPERATURE IN CELSIUS
VSB - VISIBILITY IN STATUTE MILES
WCI - WIND CHILL INDEX
HX  - HEAT INDEX




USA.gov is the U.S. government's official web portal to all federal, state and local government web resources and services.